| time (UTC) | temp F | wind direction | speed knots | gust knots | rain 1hr in | rain 24hr in | rain mn in | humidity % | barometer mb |
| 20260509132719 | 46 | 357 | 5.2 | 8.7 | 0.00 | 0.09 | 0.09 | 72 | 1009.9 |
| 20260509132217 | 46 | 346 | 4.3 | 7.0 | 0.00 | 0.09 | 0.09 | 74 | 1009.9 |
| 20260509131713 | 46 | 29 | 7.0 | 9.6 | 0.00 | 0.09 | 0.09 | 75 | 1009.6 |
| 20260509131210 | 46 | 352 | 3.5 | 11.3 | 0.00 | 0.09 | 0.09 | 77 | 1009.5 |
| 20260509130705 | 46 | 50 | 4.3 | 9.6 | 0.00 | 0.09 | 0.09 | 79 | 1009.6 |
| 20260509130202 | 46 | 17 | 4.3 | 7.8 | 0.00 | 0.09 | 0.09 | 80 | 1009.6 |
| 20260509125658 | 45 | 42 | 5.2 | 13.0 | 0.00 | 0.09 | 0.09 | 80 | 1009.3 |
| 20260509125155 | 45 | 353 | 4.3 | 6.1 | 0.00 | 0.09 | 0.09 | 83 | 1009.2 |
| 20260509124652 | 45 | 317 | 3.5 | 7.0 | 0.00 | 0.09 | 0.09 | 83 | 1009.0 |
| 20260509124148 | 45 | 347 | 2.6 | 7.0 | 0.00 | 0.09 | 0.09 | 84 | 1009.0 |
| 20260509123647 | 45 | 347 | 3.5 | 6.1 | 0.00 | 0.09 | 0.09 | 85 | 1008.9 |
| 20260509123143 | 45 | 352 | 4.3 | 7.0 | 0.00 | 0.09 | 0.09 | 86 | 1009.0 |
| 20260509122639 | 45 | 109 | 1.7 | 3.5 | 0.00 | 0.09 | 0.09 | 86 | 1008.8 |
| 20260509122136 | 45 | 309 | 3.5 | 8.7 | 0.00 | 0.09 | 0.09 | 86 | 1008.9 |
| 20260509121632 | 44 | 336 | 3.5 | 5.2 | 0.00 | 0.09 | 0.09 | 88 | 1008.6 |
| 20260509121131 | 44 | 239 | 3.5 | 7.8 | 0.00 | 0.09 | 0.09 | 90 | 1008.4 |
| 20260509120628 | 44 | 321 | 3.5 | 6.1 | 0.00 | 0.09 | 0.09 | 92 | 1008.5 |
| 20260509120126 | 44 | 302 | 2.6 | 6.1 | 0.00 | 0.09 | 0.09 | 93 | 1008.5 |
| 20260509115623 | 44 | 294 | 3.5 | 5.2 | 0.00 | 0.09 | 0.09 | 94 | 1008.3 |
| 20260509115121 | 43 | 8 | 5.2 | 6.1 | 0.00 | 0.09 | 0.09 | 95 | 1008.1 |
| 20260509114619 | 43 | 24 | 2.6 | 2.6 | 0.00 | 0.09 | 0.09 | 96 | 1008.1 |
| 20260509114118 | 0 | 0.0 | 0.0 | 0.00 | 0.00 | 0.00 | 1008.0 | ||
| 20260509113615 | 0 | 0.0 | 0.0 | 0.00 | 0.00 | 0.00 | 1008.1 | ||
| 20260509113113 | 0 | 0.0 | 0.0 | 0.00 | 0.00 | 0.00 | 1007.8 | ||
| 20260509112609 | 0 | 0.0 | 0.0 | 0.00 | 0.00 | 0.00 | 1007.7 | ||
| 20260509112106 | 0 | 0.0 | 0.0 | 0.00 | 0.00 | 0.00 | 1007.6 | ||
| 20260509111603 | 0 | 0.0 | 0.0 | 0.00 | 0.00 | 0.00 | 1007.6 | ||
| 20260509111100 | 0 | 0.0 | 0.0 | 0.00 | 0.00 | 0.00 | 1007.4 | ||
| 20260509110557 | 44 | 339 | 3.5 | 5.2 | 0.00 | 0.09 | 0.09 | 98 | 1007.2 |
| 20260509110054 | 44 | 339 | 3.5 | 5.2 | 0.00 | 0.09 | 0.09 | 98 | 1007.1 |
| 20260509105552 | 44 | 339 | 3.5 | 5.2 | 0.00 | 0.09 | 0.09 | 98 | 1007.0 |
| 20260509105050 | 44 | 339 | 3.5 | 5.2 | 0.00 | 0.09 | 0.09 | 98 | 1007.0 |
| 20260509104546 | 44 | 339 | 3.5 | 5.2 | 0.00 | 0.09 | 0.09 | 98 | 1007.0 |
| 20260509104043 | 44 | 339 | 3.5 | 5.2 | 0.00 | 0.09 | 0.09 | 98 | 1006.8 |
| 20260509103541 | 44 | 339 | 3.5 | 5.2 | 0.00 | 0.09 | 0.09 | 98 | 1006.8 |
| 20260509103039 | 44 | 339 | 3.5 | 5.2 | 0.00 | 0.09 | 0.09 | 98 | 1006.7 |
| 20260509102536 | 44 | 339 | 3.5 | 5.2 | 0.00 | 0.09 | 0.09 | 98 | 1006.7 |
| 20260509102033 | 44 | 339 | 3.5 | 5.2 | 0.00 | 0.09 | 0.09 | 98 | 1006.7 |
| 20260509101529 | 44 | 339 | 3.5 | 5.2 | 0.00 | 0.09 | 0.09 | 98 | 1006.8 |
| 20260509101026 | 44 | 339 | 3.5 | 5.2 | 0.00 | 0.09 | 0.09 | 98 | 1006.4 |
| 20260509100523 | 44 | 344 | 2.6 | 3.5 | 0.00 | 0.09 | 0.09 | 98 | 1006.4 |
| 20260509100021 | 45 | 354 | 4.3 | 5.2 | 0.00 | 0.09 | 0.09 | 96 | 1006.7 |
| 20260509095517 | 45 | 354 | 4.3 | 5.2 | 0.00 | 0.09 | 0.09 | 96 | 1006.5 |
| 20260509095015 | 45 | 354 | 4.3 | 5.2 | 0.00 | 0.09 | 0.09 | 96 | 1006.3 |
| 20260509094511 | 45 | 354 | 4.3 | 5.2 | 0.00 | 0.09 | 0.09 | 96 | 1006.3 |
| 20260509094008 | 45 | 354 | 4.3 | 5.2 | 0.00 | 0.09 | 0.09 | 96 | 1006.0 |
| 20260509093506 | 45 | 354 | 4.3 | 5.2 | 0.00 | 0.09 | 0.09 | 96 | 1006.0 |
| 20260509093004 | 46 | 351 | 6.1 | 8.7 | 0.00 | 0.09 | 0.09 | 96 | 1005.9 |
| 20260509092501 | 46 | 38 | 5.2 | 7.0 | 0.00 | 0.09 | 0.09 | 97 | 1006.0 |
| 20260509092000 | 46 | 337 | 5.2 | 7.0 | 0.00 | 0.09 | 0.09 | 97 | 1005.7 |
| 20260509091456 | 46 | 334 | 3.5 | 7.0 | 0.00 | 0.09 | 0.09 | 98 | 1005.9 |
| 20260509090953 | 47 | 351 | 2.6 | 3.5 | 0.00 | 0.09 | 0.09 | 99 | 1005.6 |
| 20260509090451 | 47 | 271 | 1.7 | 6.1 | 0.00 | 0.09 | 0.09 | 99 | 1005.4 |
| 20260509085948 | 47 | 304 | 1.7 | 2.6 | 0.00 | 0.09 | 0.09 | 99 | 1005.3 |
| 20260509085445 | 47 | 280 | 2.6 | 3.5 | 0.00 | 0.09 | 0.09 | 99 | 1005.2 |
| 20260509084941 | 47 | 267 | 3.5 | 3.5 | 0.00 | 0.09 | 0.09 | 99 | 1005.0 |
| 20260509084438 | 47 | 264 | 1.7 | 1.7 | 0.00 | 0.09 | 0.09 | 99 | 1004.7 |
| 20260509083936 | 47 | 261 | 1.7 | 1.7 | 0.00 | 0.09 | 0.09 | 99 | 1004.9 |
| 20260509083433 | 47 | 261 | 1.7 | 1.7 | 0.00 | 0.09 | 0.09 | 99 | 1004.9 |
| 20260509082929 | 47 | 261 | 1.7 | 1.7 | 0.00 | 0.09 | 0.09 | 99 | 1004.9 |
| 20260509082427 | 47 | 259 | 1.7 | 1.7 | 0.00 | 0.09 | 0.09 | 99 | 1004.6 |
| 20260509081923 | 47 | 265 | 0.9 | 0.9 | 0.00 | 0.09 | 0.09 | 99 | 1004.6 |
| 20260509081421 | 47 | 247 | 0.0 | 0.9 | 0.00 | 0.09 | 0.09 | 99 | 1004.5 |
| 20260509080918 | 47 | 247 | 0.0 | 0.9 | 0.00 | 0.09 | 0.09 | 99 | 1004.4 |
| 20260509080416 | 47 | 257 | 0.0 | 0.9 | 0.00 | 0.09 | 0.09 | 99 | 1004.6 |
| 20260509075914 | 47 | 273 | 0.9 | 0.9 | 0.00 | 0.09 | 0.09 | 99 | 1004.4 |
| 20260509075411 | 47 | 268 | 0.0 | 0.9 | 0.00 | 0.09 | 0.09 | 99 | 1004.3 |
| 20260509074908 | 47 | 254 | 0.0 | 0.0 | 0.00 | 0.09 | 0.09 | 99 | 1004.3 |
| 20260509074406 | 47 | 221 | 0.0 | 0.0 | 0.00 | 0.09 | 0.09 | 99 | 1004.3 |
| 20260509073902 | 47 | 249 | 0.0 | 0.0 | 0.00 | 0.09 | 0.09 | 99 | 1004.2 |
| 20260509073358 | 47 | 249 | 0.0 | 0.9 | 0.00 | 0.09 | 0.09 | 99 | 1004.4 |
| 20260509072855 | 47 | 191 | 0.0 | 0.9 | 0.00 | 0.09 | 0.09 | 99 | 1004.5 |
| 20260509072351 | 47 | 169 | 0.0 | 0.9 | 0.00 | 0.09 | 0.09 | 99 | 1004.7 |
| 20260509071848 | 47 | 322 | 0.9 | 0.9 | 0.07 | 0.09 | 0.09 | 99 | 1005.1 |
| 20260509071345 | 47 | 131 | 0.9 | 0.9 | 0.38 | 0.09 | 0.09 | 98 | 1004.4 |
| 20260509070843 | 47 | 251 | 0.9 | 0.9 | 0.31 | 0.08 | 0.08 | 98 | 1004.5 |
| 20260509070339 | 48 | 25 | 3.5 | 5.2 | 0.00 | 0.03 | 0.03 | 96 | 1005.3 |
| 20260509065835 | 48 | 25 | 3.5 | 5.2 | 0.00 | 0.03 | 0.03 | 96 | 1005.3 |
| 20260509065332 | 48 | 25 | 3.5 | 5.2 | 0.00 | 0.03 | 0.03 | 96 | 1005.1 |
| 20260509064827 | 48 | 25 | 3.5 | 5.2 | 0.05 | 0.03 | 0.03 | 96 | 1005.3 |
| 20260509064325 | 48 | 25 | 3.5 | 5.2 | 0.05 | 0.03 | 0.03 | 96 | 1005.4 |
| 20260509063823 | 48 | 30 | 3.5 | 3.5 | 0.07 | 0.02 | 0.02 | 96 | 1005.7 |
| 20260509063319 | 48 | 31 | 4.3 | 7.0 | 0.12 | 0.02 | 0.02 | 95 | 1005.6 |
| 20260509062816 | 48 | 29 | 7.8 | 9.6 | 0.05 | 0.01 | 0.01 | 94 | 1005.5 |
| 20260509062313 | 50 | 4 | 3.5 | 5.2 | 0.00 | 0.00 | 0.00 | 88 | 1005.5 |
| 20260509061810 | 50 | 4 | 3.5 | 5.2 | 0.00 | 0.00 | 0.00 | 88 | 1005.4 |
| 20260509061309 | 50 | 4 | 3.5 | 5.2 | 0.00 | 0.00 | 0.00 | 88 | 1005.4 |
| 20260509060805 | 50 | 4 | 3.5 | 5.2 | 0.00 | 0.00 | 0.00 | 88 | 1005.4 |
| 20260509060301 | 50 | 4 | 3.5 | 5.2 | 0.00 | 0.00 | 0.00 | 88 | 1005.6 |
| 20260509055756 | 50 | 257 | 2.6 | 6.1 | 0.00 | 0.00 | 0.00 | 87 | 1005.7 |
| 20260509055252 | 51 | 43 | 7.0 | 8.7 | 0.00 | 0.00 | 0.00 | 85 | 1005.7 |
| 20260509054744 | 54 | 346 | 9.6 | 12.2 | 0.00 | 0.00 | 0.00 | 73 | 1005.6 |
| 20260509054241 | 54 | 346 | 9.6 | 12.2 | 0.00 | 0.00 | 0.00 | 73 | 1005.8 |
| 20260509053740 | 55 | 348 | 5.2 | 11.3 | 0.00 | 0.00 | 0.00 | 66 | 1005.5 |
| 20260509053236 | 55 | 289 | 6.1 | 7.8 | 0.00 | 0.00 | 0.00 | 65 | 1005.7 |
| 20260509052734 | 55 | 320 | 8.7 | 9.6 | 0.00 | 0.00 | 0.00 | 64 | 1005.7 |
| 20260509052231 | 56 | 322 | 4.3 | 9.6 | 0.00 | 0.00 | 0.00 | 62 | 1005.7 |
| 20260509051729 | 56 | 235 | 7.8 | 9.6 | 0.00 | 0.00 | 0.00 | 59 | 1005.4 |
| 20260509051227 | 56 | 322 | 12.2 | 15.6 | 0.00 | 0.00 | 0.00 | 58 | 1005.5 |
| 20260509050723 | 56 | 315 | 7.0 | 11.3 | 0.00 | 0.00 | 0.00 | 55 | 1005.4 |
| 20260509050219 | 57 | 10 | 9.6 | 13.9 | 0.00 | 0.00 | 0.00 | 53 | 1005.4 |
| 20260509045717 | 55 | 278 | 3.5 | 6.1 | 0.00 | 0.00 | 0.00 | 51 | 1005.2 |
| 20260509045214 | 55 | 275 | 5.2 | 7.0 | 0.00 | 0.00 | 0.00 | 50 | 1005.1 |
| 20260509044711 | 54 | 261 | 1.7 | 3.5 | 0.00 | 0.00 | 0.00 | 54 | 1005.0 |
| 20260509044209 | 54 | 260 | 3.5 | 3.5 | 0.00 | 0.00 | 0.00 | 53 | 1004.9 |
| 20260509043705 | 51 | 249 | 0.9 | 2.6 | 0.00 | 0.00 | 0.00 | 63 | 1004.4 |
| 20260509043201 | 51 | 235 | 0.0 | 0.0 | 0.00 | 0.00 | 0.00 | 66 | 1004.2 |
| 20260509042657 | 50 | 255 | 0.0 | 0.9 | 0.00 | 0.00 | 0.00 | 70 | 1003.9 |
| 20260509042153 | 51 | 207 | 0.0 | 0.9 | 0.00 | 0.00 | 0.00 | 73 | 1004.3 |
| 20260509041650 | 50 | 218 | 0.0 | 0.0 | 0.00 | 0.00 | 0.00 | 73 | 1004.2 |
| 20260509041148 | 50 | 219 | 0.0 | 0.0 | 0.00 | 0.00 | 0.00 | 74 | 1004.0 |
| 20260509040646 | 49 | 205 | 0.0 | 0.0 | 0.00 | 0.00 | 0.00 | 74 | 1003.9 |
| 20260509040142 | 50 | 215 | 0.0 | 0.0 | 0.00 | 0.00 | 0.00 | 72 | 1003.8 |
| 20260509035639 | 50 | 217 | 0.0 | 0.9 | 0.00 | 0.00 | 0.00 | 71 | 1003.8 |
| 20260509035136 | 50 | 215 | 0.0 | 0.9 | 0.00 | 0.00 | 0.00 | 71 | 1003.8 |
| 20260509034634 | 50 | 221 | 0.9 | 1.7 | 0.00 | 0.00 | 0.00 | 71 | 1004.1 |
| 20260509034131 | 49 | 214 | 0.0 | 0.9 | 0.00 | 0.00 | 0.00 | 65 | 1004.0 |
| 20260509033628 | 48 | 220 | 0.9 | 0.9 | 0.00 | 0.00 | 0.00 | 62 | 1004.1 |
| 20260509033125 | 48 | 210 | 0.9 | 0.9 | 0.00 | 0.00 | 0.00 | 66 | 1003.9 |
| 20260509032622 | 48 | 163 | 0.0 | 0.0 | 0.00 | 0.00 | 0.00 | 64 | 1004.1 |
| 20260509032119 | 48 | 178 | 0.0 | 0.0 | 0.00 | 0.00 | 0.00 | 70 | 1004.3 |
| 20260509031617 | 49 | 207 | 0.0 | 0.0 | 0.00 | 0.00 | 0.00 | 70 | 1004.6 |
| 20260509031114 | 48 | 221 | 0.0 | 0.9 | 0.00 | 0.00 | 0.00 | 69 | 1004.6 |
| 20260509030612 | 48 | 200 | 0.0 | 0.0 | 0.00 | 0.00 | 0.00 | 72 | 1004.6 |
| 20260509030109 | 49 | 201 | 0.0 | 0.0 | 0.00 | 0.00 | 0.00 | 68 | 1004.7 |
| 20260509025604 | 50 | 217 | 0.0 | 0.9 | 0.00 | 0.00 | 0.00 | 61 | 1004.7 |
| 20260509025100 | 49 | 223 | 0.0 | 0.9 | 0.00 | 0.00 | 0.00 | 63 | 1004.6 |
| 20260509024556 | 49 | 204 | 0.0 | 0.0 | 0.00 | 0.00 | 0.00 | 70 | 1004.7 |
| 20260509024052 | 49 | 210 | 0.0 | 0.0 | 0.00 | 0.00 | 0.00 | 68 | 1004.9 |
| 20260509023550 | 49 | 214 | 0.0 | 0.0 | 0.00 | 0.00 | 0.00 | 61 | 1004.7 |
| 20260509023047 | 49 | 188 | 0.0 | 0.0 | 0.00 | 0.00 | 0.00 | 55 | 1004.9 |
| 20260509022543 | 49 | 188 | 0.0 | 0.0 | 0.00 | 0.00 | 0.00 | 55 | 1004.7 |
| 20260509022041 | 50 | 188 | 0.0 | 0.0 | 0.00 | 0.00 | 0.00 | 52 | 1004.7 |
| 20260509021538 | 50 | 188 | 0.0 | 0.0 | 0.00 | 0.00 | 0.00 | 51 | 1004.5 |
| 20260509021035 | 50 | 188 | 0.0 | 0.0 | 0.00 | 0.00 | 0.00 | 51 | 1004.7 |
| 20260509020533 | 51 | 188 | 0.0 | 0.0 | 0.00 | 0.00 | 0.00 | 50 | 1004.4 |
| 20260509020030 | 52 | 187 | 0.0 | 0.0 | 0.00 | 0.00 | 0.00 | 49 | 1004.6 |
| 20260509015529 | 52 | 186 | 0.0 | 0.0 | 0.00 | 0.00 | 0.00 | 47 | 1004.5 |
| 20260509015026 | 53 | 198 | 0.0 | 0.0 | 0.00 | 0.00 | 0.00 | 47 | 1004.6 |
| 20260509014522 | 54 | 184 | 0.0 | 0.0 | 0.00 | 0.00 | 0.00 | 46 | 1004.6 |
| 20260509014019 | 55 | 184 | 0.0 | 0.0 | 0.00 | 0.00 | 0.00 | 45 | 1004.7 |
| 20260509013516 | 55 | 199 | 0.0 | 0.0 | 0.00 | 0.00 | 0.00 | 43 | 1004.5 |
| 20260509013011 | 57 | 210 | 0.0 | 0.0 | 0.00 | 0.00 | 0.00 | 42 | 1004.7 |
| 20260509012508 | 58 | 213 | 0.0 | 0.0 | 0.00 | 0.00 | 0.00 | 40 | 1004.9 |
| 20260509012005 | 59 | 275 | 0.0 | 0.9 | 0.00 | 0.00 | 0.00 | 37 | 1004.9 |
| 20260509011503 | 59 | 20 | 2.6 | 2.6 | 0.00 | 0.00 | 0.00 | 36 | 1004.9 |
| 20260509011000 | 59 | 289 | 0.9 | 1.7 | 0.00 | 0.00 | 0.00 | 38 | 1004.9 |
| 20260509010458 | 59 | 14 | 1.7 | 1.7 | 0.00 | 0.00 | 0.00 | 38 | 1004.9 |
| 20260509005954 | 60 | 19 | 0.9 | 2.6 | 0.00 | 0.00 | 0.00 | 39 | 1004.9 |
| 20260509005452 | 61 | 335 | 0.9 | 1.7 | 0.00 | 0.00 | 0.00 | 36 | 1005.0 |
| 20260509004946 | 61 | 348 | 3.5 | 3.5 | 0.00 | 0.00 | 0.00 | 36 | 1005.0 |
| 20260509004443 | 62 | 10 | 2.6 | 3.5 | 0.00 | 0.00 | 0.00 | 37 | 1005.0 |
| 20260509003941 | 62 | 328 | 2.6 | 2.6 | 0.00 | 0.00 | 0.00 | 36 | 1005.2 |
| 20260509003439 | 62 | 348 | 4.3 | 5.2 | 0.00 | 0.00 | 0.00 | 34 | 1005.0 |
| 20260509002935 | 62 | 36 | 2.6 | 5.2 | 0.00 | 0.00 | 0.00 | 35 | 1004.9 |
| 20260509002433 | 62 | 46 | 4.3 | 7.8 | 0.00 | 0.00 | 0.00 | 34 | 1005.0 |
| 20260509001930 | 62 | 340 | 4.3 | 7.8 | 0.00 | 0.00 | 0.00 | 34 | 1005.0 |
| 20260509001427 | 63 | 358 | 5.2 | 9.6 | 0.00 | 0.00 | 0.00 | 34 | 1005.1 |
| 20260509000923 | 63 | 266 | 2.6 | 11.3 | 0.00 | 0.00 | 0.00 | 35 | 1005.0 |
| 20260509000421 | 63 | 314 | 3.5 | 8.7 | 0.00 | 0.00 | 0.00 | 35 | 1005.0 |
| 20260508235916 | 63 | 311 | 7.0 | 13.9 | 0.00 | 0.00 | 0.00 | 33 | 1005.0 |
| 20260508235414 | 64 | 344 | 7.8 | 9.6 | 0.00 | 0.00 | 0.00 | 33 | 1005.0 |
| 20260508234906 | 64 | 34 | 3.5 | 7.8 | 0.00 | 0.00 | 0.00 | 34 | 1005.0 |
| 20260508234402 | 64 | 331 | 6.1 | 9.6 | 0.00 | 0.00 | 0.00 | 33 | 1004.9 |
| 20260508233900 | 64 | 6 | 8.7 | 13.9 | 0.00 | 0.00 | 0.00 | 33 | 1004.7 |
| 20260508233400 | 64 | 283 | 7.8 | 15.6 | 0.00 | 0.00 | 0.00 | 32 | 1004.9 |
| 20260508232856 | 64 | 255 | 5.2 | 7.8 | 0.00 | 0.00 | 0.00 | 33 | 1004.7 |
| 20260508232352 | 64 | 58 | 5.2 | 12.2 | 0.00 | 0.00 | 0.00 | 33 | 1004.6 |
| 20260508231851 | 64 | 280 | 10.4 | 20.0 | 0.00 | 0.00 | 0.00 | 33 | 1004.6 |
| 20260508231347 | 65 | 303 | 6.1 | 14.8 | 0.00 | 0.00 | 0.00 | 32 | 1004.6 |
| 20260508230844 | 65 | 260 | 4.3 | 7.0 | 0.00 | 0.00 | 0.00 | 33 | 1005.1 |
| 20260508230340 | 65 | 297 | 9.6 | 11.3 | 0.00 | 0.00 | 0.00 | 31 | 1004.9 |
| 20260508225838 | 65 | 312 | 7.8 | 12.2 | 0.00 | 0.00 | 0.00 | 32 | 1005.0 |
| 20260508225334 | 65 | 327 | 3.5 | 13.9 | 0.00 | 0.00 | 0.00 | 34 | 1004.6 |
| 20260508224833 | 65 | 280 | 9.6 | 11.3 | 0.00 | 0.00 | 0.00 | 31 | 1005.0 |
| 20260508224330 | 66 | 280 | 6.1 | 9.6 | 0.00 | 0.00 | 0.00 | 32 | 1004.6 |
| 20260508223827 | 66 | 319 | 4.3 | 14.8 | 0.00 | 0.00 | 0.00 | 31 | 1004.6 |
| 20260508223324 | 66 | 294 | 12.2 | 15.6 | 0.00 | 0.00 | 0.00 | 30 | 1004.4 |
| 20260508222822 | 66 | 338 | 5.2 | 9.6 | 0.00 | 0.00 | 0.00 | 31 | 1004.3 |
| 20260508222319 | 67 | 278 | 9.6 | 13.0 | 0.00 | 0.00 | 0.00 | 31 | 1004.2 |
| 20260508221815 | 66 | 325 | 7.8 | 12.2 | 0.00 | 0.00 | 0.00 | 32 | 1004.2 |
| 20260508221311 | 67 | 313 | 5.2 | 8.7 | 0.00 | 0.00 | 0.00 | 32 | 1004.3 |
| 20260508220807 | 67 | 316 | 5.2 | 13.0 | 0.00 | 0.00 | 0.00 | 31 | 1004.2 |
| 20260508220304 | 67 | 308 | 11.3 | 13.9 | 0.00 | 0.00 | 0.00 | 31 | 1004.3 |
| 20260508215801 | 67 | 274 | 9.6 | 13.0 | 0.00 | 0.00 | 0.00 | 31 | 1004.4 |
| 20260508215257 | 67 | 275 | 14.8 | 16.5 | 0.00 | 0.00 | 0.00 | 30 | 1004.1 |
| 20260508214754 | 67 | 301 | 15.6 | 21.7 | 0.00 | 0.00 | 0.00 | 30 | 1004.1 |
| 20260508214251 | 68 | 358 | 7.8 | 13.0 | 0.00 | 0.00 | 0.00 | 30 | 1004.1 |
| 20260508213748 | 68 | 334 | 8.7 | 18.2 | 0.00 | 0.00 | 0.00 | 28 | 1004.3 |
| 20260508213245 | 68 | 288 | 11.3 | 18.2 | 0.00 | 0.00 | 0.00 | 27 | 1004.2 |
| 20260508212741 | 68 | 287 | 7.8 | 9.6 | 0.00 | 0.00 | 0.00 | 29 | 1004.1 |
| 20260508212237 | 68 | 354 | 3.5 | 7.0 | 0.00 | 0.00 | 0.00 | 28 | 1004.0 |
| 20260508211733 | 69 | 358 | 7.8 | 9.6 | 0.00 | 0.00 | 0.00 | 28 | 1004.0 |
| 20260508211229 | 68 | 281 | 7.8 | 8.7 | 0.00 | 0.00 | 0.00 | 27 | 1004.0 |
| 20260508210727 | 67 | 301 | 1.7 | 9.6 | 0.00 | 0.00 | 0.00 | 30 | 1004.2 |
| 20260508210224 | 66 | 266 | 7.0 | 13.9 | 0.00 | 0.00 | 0.00 | 27 | 1004.1 |
| 20260508205720 | 67 | 296 | 9.6 | 15.6 | 0.00 | 0.00 | 0.00 | 26 | 1004.0 |
| 20260508205217 | 68 | 346 | 6.1 | 13.9 | 0.00 | 0.00 | 0.00 | 27 | 1004.2 |
| 20260508204713 | 68 | 262 | 11.3 | 13.9 | 0.00 | 0.00 | 0.00 | 25 | 1004.1 |
| 20260508204209 | 68 | 290 | 5.2 | 7.8 | 0.00 | 0.00 | 0.00 | 29 | 1004.2 |
| 20260508203705 | 67 | 339 | 6.1 | 11.3 | 0.00 | 0.00 | 0.00 | 28 | 1004.3 |
| 20260508203202 | 68 | 287 | 7.8 | 14.8 | 0.00 | 0.00 | 0.00 | 26 | 1004.4 |
| 20260508202658 | 68 | 316 | 7.0 | 13.0 | 0.00 | 0.00 | 0.00 | 27 | 1004.2 |
| 20260508202155 | 67 | 296 | 6.1 | 7.8 | 0.00 | 0.00 | 0.00 | 27 | 1004.4 |
| 20260508201652 | 68 | 296 | 4.3 | 9.6 | 0.00 | 0.00 | 0.00 | 30 | 1004.4 |
| 20260508201149 | 69 | 247 | 7.0 | 11.3 | 0.00 | 0.00 | 0.00 | 25 | 1004.2 |
| 20260508200646 | 69 | 319 | 10.4 | 13.9 | 0.00 | 0.00 | 0.00 | 25 | 1004.5 |
| 20260508200142 | 68 | 262 | 7.8 | 9.6 | 0.00 | 0.00 | 0.00 | 24 | 1004.5 |
| 20260508195639 | 67 | 238 | 5.2 | 7.0 | 0.00 | 0.00 | 0.00 | 27 | 1004.6 |
| 20260508195135 | 67 | 324 | 8.7 | 12.2 | 0.00 | 0.00 | 0.00 | 26 | 1004.6 |
| 20260508194632 | 67 | 256 | 6.1 | 9.6 | 0.00 | 0.00 | 0.00 | 25 | 1004.5 |
| 20260508194129 | 68 | 222 | 2.6 | 6.1 | 0.00 | 0.00 | 0.00 | 27 | 1004.6 |
| 20260508193626 | 66 | 272 | 3.5 | 13.9 | 0.00 | 0.00 | 0.00 | 28 | 1004.7 |
| 20260508193122 | 68 | 348 | 2.6 | 5.2 | 0.00 | 0.00 | 0.00 | 30 | 1004.6 |
| 20260508192619 | 68 | 278 | 7.0 | 9.6 | 0.00 | 0.00 | 0.00 | 24 | 1005.0 |
| 20260508192116 | 66 | 237 | 6.1 | 9.6 | 0.00 | 0.00 | 0.00 | 25 | 1005.0 |
| 20260508191613 | 67 | 293 | 1.7 | 11.3 | 0.00 | 0.00 | 0.00 | 28 | 1005.0 |
| 20260508191110 | 69 | 280 | 9.6 | 13.0 | 0.00 | 0.00 | 0.00 | 24 | 1005.2 |
| 20260508190607 | 68 | 193 | 6.1 | 9.6 | 0.00 | 0.00 | 0.00 | 26 | 1005.1 |
| 20260508190103 | 67 | 243 | 5.2 | 7.8 | 0.00 | 0.00 | 0.00 | 27 | 1005.1 |
| 20260508185600 | 67 | 262 | 3.5 | 6.1 | 0.00 | 0.00 | 0.00 | 26 | 1005.0 |
| 20260508185058 | 68 | 233 | 7.0 | 9.6 | 0.00 | 0.00 | 0.00 | 25 | 1005.3 |
| 20260508184555 | 67 | 338 | 1.7 | 5.2 | 0.00 | 0.00 | 0.00 | 31 | 1005.3 |
| 20260508184051 | 67 | 295 | 2.6 | 6.1 | 0.00 | 0.00 | 0.00 | 28 | 1005.5 |
| 20260508183542 | 66 | 241 | 6.1 | 7.8 | 0.00 | 0.00 | 0.00 | 28 | 1005.4 |
| 20260508183038 | 67 | 254 | 2.6 | 7.8 | 0.00 | 0.00 | 0.00 | 25 | 1005.3 |
| 20260508182535 | 66 | 233 | 4.3 | 6.1 | 0.00 | 0.00 | 0.00 | 25 | 1005.5 |
| 20260508182032 | 66 | 276 | 4.3 | 6.1 | 0.00 | 0.00 | 0.00 | 28 | 1005.5 |
| 20260508181527 | 65 | 290 | 6.1 | 7.0 | 0.00 | 0.00 | 0.00 | 28 | 1005.7 |
| 20260508181025 | 65 | 290 | 4.3 | 7.8 | 0.00 | 0.00 | 0.00 | 29 | 1005.6 |
| 20260508180521 | 64 | 261 | 2.6 | 6.1 | 0.00 | 0.00 | 0.00 | 30 | 1005.6 |
| 20260508180018 | 65 | 341 | 4.3 | 7.0 | 0.00 | 0.00 | 0.00 | 27 | 1005.9 |
| 20260508175514 | 64 | 254 | 0.9 | 7.0 | 0.00 | 0.00 | 0.00 | 32 | 1005.9 |
| 20260508175012 | 66 | 243 | 5.2 | 6.1 | 0.00 | 0.00 | 0.00 | 26 | 1005.9 |
| 20260508174509 | 65 | 244 | 1.7 | 3.5 | 0.00 | 0.00 | 0.00 | 30 | 1006.0 |
| 20260508174006 | 64 | 225 | 3.5 | 3.5 | 0.00 | 0.00 | 0.00 | 27 | 1006.2 |
| 20260508173503 | 64 | 226 | 6.1 | 7.0 | 0.00 | 0.00 | 0.00 | 28 | 1006.4 |
| 20260508172959 | 64 | 264 | 1.7 | 7.8 | 0.00 | 0.00 | 0.00 | 31 | 1006.2 |
| 20260508172456 | 63 | 237 | 5.2 | 7.8 | 0.00 | 0.00 | 0.00 | 28 | 1006.5 |
| 20260508171952 | 64 | 240 | 7.0 | 11.3 | 0.00 | 0.00 | 0.00 | 27 | 1006.6 |
| 20260508171449 | 64 | 184 | 2.6 | 6.1 | 0.00 | 0.00 | 0.00 | 28 | 1006.8 |
| 20260508170945 | 63 | 256 | 3.5 | 6.1 | 0.00 | 0.00 | 0.00 | 27 | 1006.7 |
| 20260508170443 | 62 | 255 | 1.7 | 5.2 | 0.00 | 0.00 | 0.00 | 30 | 1006.7 |
| 20260508165939 | 64 | 242 | 5.2 | 7.0 | 0.00 | 0.00 | 0.00 | 27 | 1007.0 |
| 20260508165438 | 63 | 225 | 3.5 | 6.1 | 0.00 | 0.00 | 0.00 | 27 | 1006.8 |
| 20260508164933 | 62 | 240 | 3.5 | 7.8 | 0.00 | 0.00 | 0.00 | 30 | 1007.0 |
| 20260508164430 | 63 | 314 | 5.2 | 7.8 | 0.00 | 0.00 | 0.00 | 28 | 1007.0 |
| 20260508163927 | 64 | 225 | 1.7 | 3.5 | 0.00 | 0.00 | 0.00 | 27 | 1007.1 |
| 20260508163425 | 64 | 264 | 7.8 | 8.7 | 0.00 | 0.00 | 0.00 | 27 | 1007.2 |
| 20260508162920 | 63 | 312 | 3.5 | 7.0 | 0.00 | 0.00 | 0.00 | 31 | 1007.1 |
| 20260508162418 | 63 | 97 | 0.9 | 2.6 | 0.00 | 0.00 | 0.00 | 28 | 1007.0 |
| 20260508161915 | 63 | 274 | 1.7 | 2.6 | 0.00 | 0.00 | 0.00 | 30 | 1007.0 |
| 20260508161412 | 62 | 268 | 1.7 | 2.6 | 0.00 | 0.00 | 0.00 | 31 | 1007.0 |
| 20260508160909 | 62 | 212 | 1.7 | 3.5 | 0.00 | 0.00 | 0.00 | 32 | 1007.1 |
| 20260508160408 | 62 | 220 | 1.7 | 6.1 | 0.00 | 0.00 | 0.00 | 29 | 1007.4 |
| 20260508155904 | 62 | 226 | 1.7 | 3.5 | 0.00 | 0.00 | 0.00 | 31 | 1007.5 |
| 20260508155402 | 62 | 277 | 1.7 | 3.5 | 0.00 | 0.00 | 0.00 | 30 | 1007.5 |
| 20260508154858 | 62 | 235 | 3.5 | 5.2 | 0.00 | 0.00 | 0.00 | 32 | 1007.5 |
| 20260508154356 | 62 | 243 | 0.9 | 7.0 | 0.00 | 0.00 | 0.00 | 29 | 1007.4 |
| 20260508153852 | 62 | 252 | 2.6 | 3.5 | 0.00 | 0.00 | 0.00 | 31 | 1007.5 |
| 20260508153349 | 61 | 255 | 0.9 | 0.9 | 0.00 | 0.00 | 0.00 | 29 | 1007.5 |
| 20260508152845 | 60 | 255 | 1.7 | 2.6 | 0.00 | 0.00 | 0.00 | 35 | 1007.8 |
| 20260508152342 | 60 | 243 | 0.9 | 1.7 | 0.00 | 0.00 | 0.00 | 33 | 1007.5 |
| 20260508151838 | 61 | 231 | 1.7 | 3.5 | 0.00 | 0.00 | 0.00 | 36 | 1007.7 |
| 20260508151335 | 60 | 218 | 0.9 | 3.5 | 0.00 | 0.00 | 0.00 | 31 | 1007.9 |
| 20260508150832 | 60 | 225 | 0.9 | 5.2 | 0.00 | 0.00 | 0.00 | 33 | 1007.8 |
| 20260508150329 | 59 | 353 | 0.9 | 2.6 | 0.00 | 0.00 | 0.00 | 36 | 1008.0 |
| 20260508145825 | 59 | 199 | 0.9 | 1.7 | 0.00 | 0.00 | 0.00 | 40 | 1007.9 |
| 20260508145321 | 58 | 217 | 0.0 | 1.7 | 0.00 | 0.00 | 0.00 | 41 | 1007.9 |
| 20260508144818 | 57 | 235 | 1.7 | 2.6 | 0.00 | 0.00 | 0.00 | 41 | 1007.9 |
| 20260508144315 | 57 | 238 | 2.6 | 3.5 | 0.00 | 0.00 | 0.00 | 42 | 1008.0 |
| 20260508143807 | 55 | 214 | 1.7 | 2.6 | 0.00 | 0.00 | 0.00 | 42 | 1008.2 |
| 20260508143304 | 55 | 211 | 1.7 | 3.5 | 0.00 | 0.00 | 0.00 | 48 | 1008.2 |
| 20260508142801 | 54 | 237 | 0.9 | 3.5 | 0.00 | 0.00 | 0.00 | 52 | 1008.3 |
| 20260508142258 | 54 | 243 | 1.7 | 2.6 | 0.00 | 0.00 | 0.00 | 51 | 1008.2 |
| 20260508141754 | 53 | 222 | 2.6 | 2.6 | 0.00 | 0.00 | 0.00 | 54 | 1008.1 |
| 20260508141251 | 52 | 255 | 2.6 | 3.5 | 0.00 | 0.00 | 0.00 | 57 | 1008.6 |
| 20260508140749 | 52 | 260 | 1.7 | 3.5 | 0.00 | 0.00 | 0.00 | 60 | 1008.4 |
| 20260508140245 | 51 | 228 | 2.6 | 5.2 | 0.00 | 0.00 | 0.00 | 57 | 1008.6 |
| 20260508135741 | 50 | 266 | 1.7 | 3.5 | 0.00 | 0.00 | 0.00 | 64 | 1008.4 |
| 20260508135238 | 50 | 214 | 1.7 | 2.6 | 0.00 | 0.00 | 0.00 | 62 | 1008.6 |
| 20260508134733 | 49 | 225 | 2.6 | 5.2 | 0.00 | 0.00 | 0.00 | 63 | 1008.3 |
| 20260508134231 | 48 | 225 | 3.5 | 3.5 | 0.00 | 0.00 | 0.00 | 64 | 1008.5 |
| 20260508133727 | 48 | 225 | 3.5 | 5.2 | 0.00 | 0.00 | 0.00 | 67 | 1008.4 |
| 20260508133225 | 48 | 234 | 2.6 | 3.5 | 0.00 | 0.00 | 0.00 | 64 | 1008.5 |